This is the latest recevied weather packets stored in our database for station/object PA3TA-2. If no packets are shown the sender has not sent any weather packets the latest 10 day(s).
| Time | Temp. | Humidity | Pressure | Rain* | Wind** | Luminosity | Snow |
|---|---|---|---|---|---|---|---|
| 1788613147 | 23.33° C | 52% | 1023.9 hPa | 0 mm | - | - | - |
| 1788612843 | 23.33° C | 52% | 1023.9 hPa | 0 mm | - | - | - |
| 1788612540 | 23.33° C | 52% | 1024 hPa | 0 mm | - | - | - |
| 1788612237 | 23.33° C | 52% | 1023.9 hPa | 0 mm | - | - | - |
| 1788611922 | 23.89° C | 51% | 1023.7 hPa | 0 mm | - | - | - |
| 1788611619 | 23.89° C | 51% | 1023.8 hPa | 0 mm | - | - | - |
| 1788611316 | 23.89° C | 51% | 1023.7 hPa | 0 mm | - | - | - |
| 1788611012 | 23.89° C | 52% | 1023.6 hPa | 0 mm | - | - | - |
| 1788610709 | 23.89° C | 53% | 1023.7 hPa | 0 mm | - | - | - |
| 1788610406 | 23.89° C | 53% | 1023.7 hPa | 0 mm | - | - | - |
| 1788610103 | 24.44° C | 54% | 1023.7 hPa | 0 mm | - | - | - |
| 1788609969 | 23.89° C | 55% | 1023.6 hPa | 0 mm | - | - | - |
| 1788609491 | 23.89° C | 56% | 1023.4 hPa | 0 mm | - | - | - |
| 1788609188 | 23.89° C | 56% | 1023.4 hPa | 0 mm | - | - | - |
| 1788608873 | 23.33° C | 55% | 1023.4 hPa | 0 mm | - | - | - |
| 1788608570 | 23.33° C | 56% | 1023.4 hPa | 0 mm | - | - | - |
| 1788608267 | 23.33° C | 56% | 1023.3 hPa | 0 mm | - | - | - |
| 1788607964 | 23.33° C | 58% | 1023.3 hPa | 0 mm | - | - | - |
| 1788607662 | 23.33° C | 59% | 1023.3 hPa | 0 mm | - | - | - |
| 1788607357 | 23.33° C | 60% | 1023.2 hPa | 0 mm | - | - | - |
| 1788607054 | 23.33° C | 60% | 1023.2 hPa | 0 mm | - | - | - |
| 1788606751 | 22.78° C | 60% | 1023.2 hPa | 0 mm | - | - | - |
| 1788606436 | 22.78° C | 60% | 1023.2 hPa | 0 mm | - | - | - |
| 1788606133 | 22.78° C | 61% | 1023.1 hPa | 0 mm | - | - | - |
| 1788605829 | 22.78° C | 61% | 1023.1 hPa | 0 mm | - | - | - |
* Rain since midnight (hover to see other rain measurements)
** Current wind speed in m/s (hover to see current wind gust speed)